| time (UTC) | temp F | wind direction | speed MPH | gust MPH | rain 1hr in | rain 24hr in | rain mn in | humidity % | barometer mb |
| 20260831234605 | 69 | 162 | 0.0 | 4.0 | 0.00 | 0.00 | 0.00 | 46 | 1023.0 |
| 20260831233103 | 69 | 250 | 1.0 | 4.0 | 0.00 | 0.00 | 0.00 | 43 | 1023.1 |
| 20260831231559 | 69 | 202 | 0.0 | 6.0 | 0.00 | 0.00 | 0.00 | 42 | 1023.1 |
| 20260831230106 | 69 | 345 | 1.0 | 5.0 | 0.00 | 0.00 | 0.00 | 38 | 1023.3 |
| 20260831224600 | 70 | 98 | 0.0 | 6.0 | 0.00 | 0.00 | 0.00 | 37 | 1023.5 |
| 20260831223100 | 71 | 121 | 1.0 | 3.0 | 0.00 | 0.00 | 0.00 | 38 | 1023.5 |
| 20260831221624 | 72 | 0 | 0.0 | 4.0 | 0.00 | 0.00 | 0.00 | 39 | 1023.8 |
| 20260831220104 | 71 | 315 | 1.0 | 4.0 | 0.00 | 0.00 | 0.00 | 38 | 1023.9 |
| 20260831214559 | 72 | 315 | 1.0 | 6.0 | 0.00 | 0.00 | 0.00 | 36 | 1024.0 |
| 20260831213056 | 73 | 316 | 0.0 | 4.0 | 0.00 | 0.00 | 0.00 | 35 | 1024.1 |
| 20260831211554 | 74 | 267 | 0.0 | 6.0 | 0.00 | 0.00 | 0.00 | 33 | 1024.1 |
| 20260831210100 | 74 | 281 | 1.0 | 4.0 | 0.00 | 0.00 | 0.00 | 33 | 1024.2 |
| 20260831204604 | 74 | 0 | 1.0 | 4.0 | 0.00 | 0.00 | 0.00 | 33 | 1024.2 |
| 20260831203137 | 75 | 113 | 1.0 | 7.0 | 0.00 | 0.00 | 0.00 | 32 | 1024.2 |
| 20260831201607 | 76 | 240 | 1.0 | 4.0 | 0.00 | 0.00 | 0.00 | 31 | 1024.1 |
| 20260831200139 | 77 | 290 | 1.0 | 5.0 | 0.00 | 0.00 | 0.00 | 29 | 1024.1 |
| 20260831194621 | 76 | 212 | 0.0 | 4.0 | 0.00 | 0.00 | 0.00 | 30 | 1024.1 |
| 20260831193054 | 76 | 198 | 1.0 | 6.0 | 0.00 | 0.00 | 0.00 | 29 | 1024.3 |
| 20260831191610 | 77 | 286 | 1.0 | 6.0 | 0.00 | 0.00 | 0.00 | 31 | 1024.3 |
| 20260831190101 | 76 | 126 | 1.0 | 4.0 | 0.00 | 0.00 | 0.00 | 36 | 1024.4 |
| 20260831184556 | 76 | 0 | 1.0 | 5.0 | 0.00 | 0.00 | 0.00 | 37 | 1024.4 |
| 20260831183100 | 76 | 231 | 1.0 | 3.0 | 0.00 | 0.00 | 0.00 | 38 | 1024.4 |
| 20260831181559 | 74 | 234 | 1.0 | 4.0 | 0.00 | 0.00 | 0.00 | 41 | 1024.3 |
| 20260831180113 | 73 | 169 | 0.0 | 3.0 | 0.00 | 0.00 | 0.00 | 42 | 1024.1 |
| 20260831174604 | 74 | 0 | 0.0 | 3.0 | 0.00 | 0.00 | 0.00 | 42 | 1024.1 |
| 20260831173105 | 73 | 229 | 1.0 | 3.0 | 0.00 | 0.00 | 0.00 | 44 | 1024.0 |
| 20260831171558 | 71 | 288 | 1.0 | 4.0 | 0.00 | 0.00 | 0.00 | 47 | 1023.9 |
| 20260831170108 | 72 | 38 | 0.0 | 2.0 | 0.00 | 0.00 | 0.00 | 46 | 1023.9 |
| 20260831164553 | 71 | 193 | 1.0 | 4.0 | 0.00 | 0.00 | 0.00 | 47 | 1023.6 |
| 20260831163103 | 69 | 305 | 1.0 | 3.0 | 0.00 | 0.00 | 0.00 | 50 | 1023.6 |
| 20260831161600 | 69 | 0 | 0.0 | 3.0 | 0.00 | 0.00 | 0.00 | 49 | 1023.4 |
| 20260831160104 | 68 | 231 | 0.0 | 4.0 | 0.00 | 0.00 | 0.00 | 50 | 1023.4 |
| 20260831154624 | 68 | 0 | 0.0 | 1.0 | 0.00 | 0.00 | 0.00 | 52 | 1023.4 |
| 20260831153059 | 64 | 0 | 0.0 | 2.0 | 0.00 | 0.00 | 0.00 | 57 | 1023.4 |
| 20260831151603 | 60 | 0 | 0.0 | 1.0 | 0.00 | 0.00 | 0.00 | 61 | 1023.2 |
| 20260831150100 | 55 | 96 | 0.0 | 1.0 | 0.00 | 0.00 | 0.00 | 65 | 1023.3 |
| 20260831144558 | 53 | 82 | 0.0 | 2.0 | 0.00 | 0.00 | 0.00 | 67 | 1023.2 |
| 20260831143100 | 50 | 70 | 0.0 | 2.0 | 0.00 | 0.00 | 0.00 | 70 | 1023.2 |
| 20260831141609 | 49 | 0 | 0.0 | 2.0 | 0.00 | 0.00 | 0.00 | 68 | 1023.1 |
| 20260831140058 | 49 | 70 | 0.0 | 2.0 | 0.00 | 0.00 | 0.00 | 68 | 1023.0 |
| 20260831134556 | 48 | 0 | 0.0 | 1.0 | 0.00 | 0.00 | 0.00 | 68 | 1022.8 |
| 20260831133101 | 48 | 0 | 0.0 | 1.0 | 0.00 | 0.00 | 0.00 | 68 | 1022.7 |
| 20260831131602 | 47 | 0 | 0.0 | 1.0 | 0.00 | 0.00 | 0.00 | 69 | 1022.5 |
| 20260831130059 | 47 | 0 | 0.0 | 1.0 | 0.00 | 0.00 | 0.00 | 68 | 1022.5 |
| 20260831124600 | 47 | 0 | 0.0 | 1.0 | 0.00 | 0.00 | 0.00 | 68 | 1022.3 |
| 20260831123100 | 48 | 0 | 0.0 | 1.0 | 0.00 | 0.00 | 0.00 | 68 | 1022.3 |
| 20260831121605 | 48 | 0 | 0.0 | 1.0 | 0.00 | 0.00 | 0.00 | 67 | 1022.3 |
| 20260831120151 | 48 | 0 | 0.0 | 1.0 | 0.00 | 0.00 | 0.00 | 67 | 1022.3 |
| 20260831114605 | 48 | 87 | 0.0 | 0.0 | 0.00 | 0.00 | 0.00 | 66 | 1022.5 |
| 20260831113108 | 49 | 0 | 0.0 | 1.0 | 0.00 | 0.00 | 0.00 | 66 | 1022.5 |
| 20260831111559 | 49 | 0 | 0.0 | 1.0 | 0.00 | 0.00 | 0.00 | 66 | 1022.6 |
| 20260831110105 | 49 | 77 | 0.0 | 2.0 | 0.00 | 0.00 | 0.00 | 66 | 1022.5 |
| 20260831104607 | 49 | 0 | 0.0 | 2.0 | 0.00 | 0.00 | 0.00 | 66 | 1022.6 |
| 20260831103100 | 49 | 76 | 0.0 | 1.0 | 0.00 | 0.00 | 0.00 | 65 | 1022.6 |
| 20260831101613 | 49 | 0 | 0.0 | 1.0 | 0.00 | 0.00 | 0.00 | 65 | 1022.6 |
| 20260831100112 | 49 | 0 | 0.0 | 1.0 | 0.00 | 0.00 | 0.00 | 64 | 1022.8 |
| 20260831094559 | 50 | 0 | 0.0 | 2.0 | 0.00 | 0.00 | 0.00 | 64 | 1022.8 |
| 20260831093105 | 50 | 0 | 0.0 | 1.0 | 0.00 | 0.00 | 0.00 | 63 | 1022.8 |
| 20260831091552 | 50 | 75 | 0.0 | 1.0 | 0.00 | 0.00 | 0.00 | 63 | 1022.7 |
| 20260831090110 | 51 | 0 | 0.0 | 2.0 | 0.00 | 0.00 | 0.00 | 62 | 1022.7 |
| 20260831084608 | 51 | 0 | 0.0 | 1.0 | 0.00 | 0.00 | 0.00 | 62 | 1022.8 |
| 20260831083100 | 51 | 122 | 0.0 | 1.0 | 0.00 | 0.00 | 0.00 | 62 | 1023.0 |
| 20260831081604 | 51 | 0 | 0.0 | 1.0 | 0.00 | 0.00 | 0.00 | 63 | 1023.2 |
| 20260831080101 | 50 | 0 | 0.0 | 1.0 | 0.00 | 0.00 | 0.00 | 65 | 1023.3 |
| 20260831074601 | 50 | 0 | 0.0 | 2.0 | 0.00 | 0.00 | 0.00 | 65 | 1023.4 |
| 20260831073056 | 50 | 0 | 0.0 | 1.0 | 0.00 | 0.00 | 0.00 | 64 | 1023.4 |
| 20260831071615 | 51 | 0 | 0.0 | 1.0 | 0.00 | 0.00 | 0.00 | 63 | 1023.5 |
| 20260831070110 | 51 | 81 | 0.0 | 2.0 | 0.00 | 0.00 | 0.00 | 63 | 1023.5 |
| 20260831064556 | 51 | 0 | 0.0 | 1.0 | 0.00 | 0.00 | 0.00 | 63 | 1023.8 |
| 20260831063109 | 51 | 0 | 0.0 | 1.0 | 0.00 | 0.00 | 0.00 | 62 | 1023.8 |
| 20260831061608 | 51 | 0 | 0.0 | 1.0 | 0.00 | 0.00 | 0.00 | 62 | 1023.8 |
| 20260831060112 | 52 | 0 | 0.0 | 1.0 | 0.00 | 0.00 | 0.00 | 62 | 1023.7 |
| 20260831054604 | 52 | 0 | 0.0 | 1.0 | 0.00 | 0.00 | 0.00 | 63 | 1023.7 |
| 20260831053141 | 52 | 0 | 0.0 | 1.0 | 0.00 | 0.00 | 0.00 | 65 | 1023.8 |
| 20260831051604 | 52 | 0 | 0.0 | 1.0 | 0.00 | 0.00 | 0.00 | 66 | 1023.8 |
| 20260831050125 | 52 | 0 | 0.0 | 1.0 | 0.00 | 0.00 | 0.00 | 66 | 1023.8 |
| 20260831044602 | 53 | 0 | 0.0 | 1.0 | 0.00 | 0.00 | 0.00 | 68 | 1023.9 |
| 20260831043059 | 53 | 0 | 0.0 | 0.0 | 0.00 | 0.00 | 0.00 | 71 | 1023.9 |
| 20260831041608 | 54 | 0 | 0.0 | 0.0 | 0.00 | 0.00 | 0.00 | 72 | 1023.8 |
| 20260831040104 | 55 | 0 | 0.0 | 0.0 | 0.00 | 0.00 | 0.00 | 71 | 1023.9 |
| 20260831034600 | 57 | 0 | 0.0 | 0.0 | 0.00 | 0.00 | 0.00 | 71 | 1023.7 |
| 20260831033111 | 58 | 0 | 0.0 | 0.0 | 0.00 | 0.00 | 0.00 | 70 | 1023.6 |
| 20260831031551 | 59 | 0 | 0.0 | 0.0 | 0.00 | 0.00 | 0.00 | 68 | 1023.4 |
| 20260831024557 | 62 | 0 | 0.0 | 0.0 | 0.00 | 0.00 | 0.00 | 67 | 1023.2 |
| 20260831023053 | 63 | 0 | 0.0 | 0.0 | 0.00 | 0.00 | 0.00 | 67 | 1023.1 |
| 20260831021601 | 64 | 0 | 0.0 | 2.0 | 0.00 | 0.00 | 0.00 | 66 | 1023.1 |
| 20260831020111 | 65 | 0 | 0.0 | 2.0 | 0.00 | 0.00 | 0.00 | 63 | 1023.0 |
| 20260831014551 | 66 | 0 | 0.0 | 1.0 | 0.00 | 0.00 | 0.00 | 60 | 1023.2 |
| 20260831013105 | 67 | 0 | 0.0 | 1.0 | 0.00 | 0.00 | 0.00 | 57 | 1023.2 |
| 20260831011601 | 68 | 0 | 0.0 | 3.0 | 0.00 | 0.00 | 0.00 | 54 | 1023.2 |
| 20260831010055 | 70 | 231 | 0.0 | 2.0 | 0.00 | 0.00 | 0.00 | 51 | 1023.2 |
| 20260831004603 | 70 | 0 | 0.0 | 6.0 | 0.00 | 0.00 | 0.00 | 51 | 1023.4 |
| 20260831003058 | 71 | 247 | 0.0 | 6.0 | 0.00 | 0.00 | 0.00 | 48 | 1023.2 |
| 20260831001557 | 72 | 263 | 1.0 | 5.0 | 0.00 | 0.00 | 0.00 | 46 | 1023.4 |
| 20260831000055 | 73 | 302 | 1.0 | 6.0 | 0.00 | 0.00 | 0.00 | 43 | 1023.2 |